Regional Weather Roundup
Issued by NWS

Home | Current Version | Previous Version | Text Only | Print | Product List | Glossary On
Versions: 1 2 3 4 5 6 7 8 9 10 11 12 13 14 15 16 17 18 19 20 21 22 23 24 25 26 27 28 29 30 31 32 33 34 35 36 37 38 39 40 41 42 43 44 45 46 47 48 49 50
000
ASUS43 KDTX 271510
RWRMI
MICHIGAN HOURLY REGIONAL WEATHER ROUNDUP
NATIONAL WEATHER SERVICE DETROIT/PONTIAC MI
1100 AM EDT WED JUL 27 2016

NOTE: "FAIR" INDICATES FEW OR NO CLOUDS BELOW 12,000 FEET WITH NO
SIGNIFICANT WEATHER AND/OR OBSTRUCTION TO VISIBILITY.

MIZ047>049-052>055-059>063-066>070-074>076-081>083-271600-
SOUTHEAST LOWER MICHIGAN

CITY           SKY/WX    TMP DP  RH WIND       PRES   REMARKS
ADRIAN         SUNNY     82  64  54 W5        30.03F
ANN ARBOR      SUNNY     84  65  52 VRB6      30.01F
DETROIT CITY   SUNNY     84  63  49 NW12      30.01F
DETROIT        MOSUNNY   84  63  49 VRB3      30.01F
FLINT          SUNNY     86  58  38 W10       30.00F

CITY           SKY/WX    TMP DP  RH WIND       PRES   REMARKS
JACKSON        SUNNY     80  64  58 SW5       30.03F
LANSING        MOSUNNY   82  59  45 SW7       30.02F
LAPEER         NOT AVBL
MT. CLEMENS    MOSUNNY   85  66  53 SW7       29.99F
PONTIAC        MOSUNNY   81  63  54 W6        30.01F
PORT HOPE        N/A     82  65  56 NW10      29.95
TRI CITIES     SUNNY     82  66  58 W13       29.98F
MIDLAND        NOT AVBL
$$
MIZ043>046-050>051-056>058-064>065-071>073-077>080-271600-
SOUTHWEST LOWER MICHIGAN

CITY           SKY/WX    TMP DP  RH WIND       PRES   REMARKS
BATTLE CREEK   SUNNY     78  63  59 W7        30.04S
BENTON HARBOR  SUNNY     81  64  56 CALM      30.02S
HOLLAND        SUNNY     82  69  64 SW7       30.02S
GRAND RAPIDS   PTSUNNY   80  63  55 SW8       30.02S
KALAMAZOO      SUNNY     80  60  50 S5        30.02F
MUSKEGON       MOSUNNY   82  69  64 W8        30.00S
$$
MIZ016>042-271600-
NORTHERN LOWER MICHIGAN

CITY           SKY/WX    TMP DP  RH WIND       PRES   REMARKS
ALPENA         CLOUDY    80  65  59 CALM      29.96S
GAYLORD        SUNNY     81  61  50 VRB5      29.99S
HOUGHTON LAKE  SUNNY     79  67  66 SW7       29.99F
MANISTEE       SUNNY     83  70  64 VRB6      29.96F
PELLSTON       CLOUDY    77  64  64 CALM      29.96F
TRAVERSE CITY  MOSUNNY   83  65  54 CALM      29.95S
$$
MIZ007>008-015-271600-
EASTERN UPPER MICHIGAN

CITY           SKY/WX    TMP DP  RH WIND       PRES   REMARKS
KINROSS        CLOUDY    68  66  93 NW7       29.97S
S. S. MARIE    PTSUNNY   74  67  78 VRB3      29.95F
MUNISING         N/A     70  67  90 N9        29.99
$$
MIZ004>006-011>014-085-271600-
CENTRAL UPPER MICHIGAN

CITY           SKY/WX    TMP DP  RH WIND       PRES   REMARKS
ESCANABA       PTSUNNY   73  64  73 N7        29.98R
MENOMINEE      MOSUNNY  N/A N/A N/A VRB3      30.00S
SAWYER-GWINN   PTSUNNY   70  63  78 N7        30.01S
$$
MIZ001>003-009>011-084-271600-
WESTERN UPPER MICHIGAN

CITY           SKY/WX    TMP DP  RH WIND       PRES   REMARKS
IRON MOUNTAIN  CLOUDY    72  64  76 W5        30.00S
HOUGHTON       CLOUDY    67  57  70 E5        30.02R
COPPER HARBOR    N/A     63  56  78 E5        30.03
IRONWOOD       CLOUDY    70  66  88 NE5       29.99F
$$

ABBREVIATIONS USED IN REMARKS
   TC - TEMPERATURE IN CELSIUS
  WCI - WIND CHILL INDEX
   HX - HEAT INDEX
  VSB - VISIBILITY




USA.gov is the U.S. government's official web portal to all federal, state and local government web resources and services.